sat.trackr.live / text

‹ back to catalog

FLOCK 4BE-6

NORAD 60516 · 2024-149BA

PAYLOAD ACTIVE UNKNOWN

§ Identity

Operator
Country
US
Launch date
2024-08-16
Launch site
AFWTR
Launch vehicle
Mass (kg)
RCS (m²)

Purposes: earth_obs

External: N2YO · Heavens-Above · Gunter

§ Orbital elements

Epoch: 2026-05-24T18:43:45.161184Z

Period
93.58 min
Inclination
97.3784°
Eccentricity
0.0003830
Mean motion
15.38848754 rev/d
Perigee alt
446.9 km
Apogee alt
452.1 km
Semi-major
6,827.6 km
B*
3.3033e-4
RAAN
228.2400°
Arg perigee
46.6204°
Mean anomaly
313.5360°
Rev number
9,867

§ Raw data

FLOCK 4BE-61 60516U 24149BA  26144.78038381  .00012618  00000+0  33033-3 0  99952 60516  97.3784 228.2400 0003830  46.6204 313.5360 15.38848754 98676

JSON: /api/v1/satellites/60516 · /tle

For live sub-satellite position, see the globe view (requires WebGL).

§ Visibility from observer

Set your observer location to see the next 7 days of passes ≥ 10°. The values pass through the URL so the page stays shareable.

No JS? Fill the form by hand. The geolocation button needs JavaScript.